When you browse on this site, cookies collect data to enhance your experience and personalize the content and advertising you see.
Visit our Privacy Policy to learn more. By continuing to use the site, you agree to this use of cookies and data.
  • In Lithuania
  • List of Countries
  • For 7 days
  • Water Temperature
  • Satellite Maps
  • Weather Map
  • Weather Widgets
  • user-avatar
    Login

    Hourly Weather Portalegre

    Today, 10 December, Monday

    Time Temperature Precipitation Wind Pressure Humidity
    00:00 +10°C° 0 mm 2 mps 732 mmHg 72%
    01:00 +10°C° 0 mm 2 mps 731 mmHg 72%
    02:00 +10°C° 0 mm 2 mps 731 mmHg 72%
    03:00 +9°C° 0 mm 2 mps 731 mmHg 73%
    04:00 +9°C° 0 mm 2 mps 731 mmHg 73%
    05:00 +9°C° 0 mm 2 mps 730 mmHg 73%
    06:00 +8°C° 0 mm 2 mps 731 mmHg 74%
    07:00 +9°C° 0 mm 2 mps 731 mmHg 71%
    08:00 +9°C° 0 mm 2 mps 730 mmHg 69%
    09:00 +10°C° 0 mm 2 mps 730 mmHg 66%
    10:00 +12°C° 0 mm 3 mps 730 mmHg 60%
    11:00 +14°C° 0 mm 3 mps 730 mmHg 53%
    12:00 +17°C° 0 mm 3 mps 731 mmHg 47%
    13:00 +17°C° 0 mm 3 mps 730 mmHg 46%
    14:00 +18°C° 0 mm 3 mps 730 mmHg 46%
    15:00 +18°C° 0 mm 3 mps 729 mmHg 46%
    16:00 +16°C° 0 mm 2 mps 729 mmHg 51%
    17:00 +14°C° 0 mm 2 mps 728 mmHg 56%
    18:00 +12°C° 0 mm 2 mps 728 mmHg 60%
    19:00 +12°C° 0 mm 2 mps 728 mmHg 60%
    20:00 +12°C° 0 mm 2 mps 728 mmHg 60%
    21:00 +11°C° 0 mm 1 mps 728 mmHg 60%
    22:00 +11°C° 0 mm 1 mps 728 mmHg 60%
    23:00 +11°C° 0 mm 1 mps 728 mmHg 60%

    Tomorrow, 11 December, Tuesday

    Time Temperature Precipitation Wind Pressure Humidity
    00:00 +10°C° 0 mm 1 mps 727 mmHg 60%
    01:00 +10°C° 0 mm 1 mps 727 mmHg 61%
    02:00 +10°C° 0 mm 1 mps 727 mmHg 62%
    03:00 +10°C° 0 mm 1 mps 727 mmHg 62%
    04:00 +9°C° 0 mm 1 mps 727 mmHg 63%
    05:00 +9°C° 0 mm 1 mps 727 mmHg 64%
    06:00 +9°C° 0 mm 1 mps 726 mmHg 65%
    07:00 +10°C° 0 mm 1 mps 727 mmHg 65%
    08:00 +10°C° 0 mm 1 mps 727 mmHg 65%
    09:00 +11°C° 0 mm 1 mps 727 mmHg 65%
    10:00 +12°C° 0 mm 1 mps 727 mmHg 63%
    11:00 +14°C° 0 mm 1 mps 728 mmHg 61%
    12:00 +15°C° 0 mm 1 mps 728 mmHg 60%
    13:00 +16°C° 0 mm 1 mps 728 mmHg 61%
    14:00 +16°C° 0 mm 1 mps 727 mmHg 62%
    15:00 +16°C° 0 mm 1 mps 727 mmHg 63%
    16:00 +15°C° 0 mm 1 mps 727 mmHg 69%
    17:00 +13°C° 0 mm 1 mps 727 mmHg 76%
    18:00 +11°C° 0 mm 1 mps 727 mmHg 82%
    19:00 +11°C° 0 mm 1 mps 727 mmHg 84%
    20:00 +10°C° 0 mm 1 mps 727 mmHg 87%
    21:00 +10°C° 0 mm 1 mps 727 mmHg 89%
    22:00 +9°C° 0 mm 1 mps 727 mmHg 90%
    23:00 +9°C° 0 mm 1 mps 727 mmHg 91%

    Day after tomorrow, 12 December, Wednesday

    Time Temperature Precipitation Wind Pressure Humidity
    00:00 +9°C° 0 mm 1 mps 727 mmHg 92%
    01:00 +8°C° 0 mm 1 mps 727 mmHg 92%
    02:00 +8°C° 0 mm 1 mps 727 mmHg 93%
    03:00 +8°C° 0 mm 1 mps 727 mmHg 94%
    04:00 +8°C° 0 mm 1 mps 727 mmHg 94%
    05:00 +7°C° 0 mm 1 mps 727 mmHg 95%
    06:00 +7°C° 0 mm 1 mps 727 mmHg 95%
    07:00 +8°C° 0 mm 1 mps 727 mmHg 94%
    08:00 +8°C° 0 mm 1 mps 727 mmHg 93%
    09:00 +9°C° 0 mm 1 mps 727 mmHg 92%
    10:00 +10°C° 0 mm 1 mps 727 mmHg 86%
    11:00 +12°C° 0 mm 2 mps 727 mmHg 80%
    12:00 +13°C° 0 mm 2 mps 727 mmHg 74%
    13:00 +13°C° 0 mm 2 mps 726 mmHg 73%
    14:00 +12°C° 0 mm 3 mps 726 mmHg 72%
    15:00 +13°C° 0 mm 3 mps 725 mmHg 70%
    16:00 +12°C° 0 mm 3 mps 725 mmHg 75%
    17:00 +12°C° 0 mm 2 mps 725 mmHg 81%
    18:00 +10°C° 0 mm 2 mps 725 mmHg 86%
    19:00 +10°C° 0 mm 2 mps 725 mmHg 87%
    20:00 +10°C° 0 mm 2 mps 725 mmHg 89%
    21:00 +9°C° 0 mm 2 mps 725 mmHg 91%
    22:00 +10°C° 0.5 mm 3 mps 724 mmHg 92%
    23:00 +10°C° 0.5 mm 3 mps 723 mmHg 92%

    13 December, Thursday

    Time Temperature Precipitation Wind Pressure Humidity
    00:00 +10°C° 0.5 mm 4 mps 723 mmHg 93%
    01:00 +10°C° 2.3 mm 4 mps 722 mmHg 93%
    02:00 +9°C° 2.3 mm 5 mps 722 mmHg 94%
    03:00 +10°C° 2.3 mm 5 mps 721 mmHg 94%
    04:00 +9°C° 0.5 mm 5 mps 721 mmHg 92%
    05:00 +9°C° 0.5 mm 5 mps 720 mmHg 90%
    06:00 +10°C° 0.5 mm 4 mps 720 mmHg 88%
    07:00 +8°C° 0.2 mm 5 mps 721 mmHg 87%
    08:00 +8°C° 0.2 mm 6 mps 721 mmHg 86%
    09:00 +8°C° 0.2 mm 7 mps 722 mmHg 85%
    10:00 +8°C° 0.1 mm 7 mps 722 mmHg 77%
    11:00 +7°C° 0.1 mm 8 mps 723 mmHg 69%
    12:00 +9°C° 0.1 mm 8 mps 723 mmHg 61%
    13:00 +9°C° 0 mm 8 mps 724 mmHg 59%
    14:00 +9°C° 0 mm 8 mps 724 mmHg 57%
    15:00 +9°C° 0 mm 8 mps 724 mmHg 55%
    16:00 +8°C° 0 mm 6 mps 725 mmHg 60%
    17:00 +7°C° 0 mm 5 mps 725 mmHg 65%
    18:00 +5°C° 0 mm 3 mps 726 mmHg 69%
    19:00 +5°C° 0 mm 3 mps 726 mmHg 72%
    20:00 +5°C° 0 mm 3 mps 727 mmHg 75%
    21:00 +4°C° 0 mm 3 mps 728 mmHg 78%
    22:00 +4°C° 0 mm 3 mps 728 mmHg 80%
    23:00 +5°C° 0 mm 2 mps 728 mmHg 82%

    14 December, Friday

    Time Temperature Precipitation Wind Pressure Humidity
    00:00 +5°C° 0 mm 2 mps 729 mmHg 84%
    01:00 +4°C° 0 mm 2 mps 729 mmHg 86%
    02:00 +4°C° 0 mm 2 mps 729 mmHg 89%
    03:00 +4°C° 0 mm 2 mps 729 mmHg 91%
    04:00 +4°C° 0 mm 2 mps 729 mmHg 92%
    05:00 +3°C° 0 mm 2 mps 729 mmHg 92%
    06:00 +3°C° 0 mm 2 mps 729 mmHg 93%
    07:00 +5°C° 0 mm 1 mps 730 mmHg 90%
    08:00 +6°C° 0 mm 1 mps 730 mmHg 87%
    09:00 +6°C° 0 mm 1 mps 731 mmHg 84%
    10:00 +8°C° 0 mm 1 mps 731 mmHg 77%
    11:00 +9°C° 0 mm 2 mps 731 mmHg 69%
    12:00 +12°C° 0 mm 2 mps 732 mmHg 62%
    13:00 +12°C° 0 mm 2 mps 732 mmHg 61%
    14:00 +13°C° 0 mm 2 mps 731 mmHg 61%
    15:00 +13°C° 0 mm 2 mps 731 mmHg 61%
    16:00 +12°C° 0 mm 2 mps 731 mmHg 67%
    17:00 +10°C° 0 mm 1 mps 731 mmHg 73%
    18:00 +9°C° 0 mm 1 mps 731 mmHg 80%
    19:00 +9°C° 0 mm 1 mps 731 mmHg 81%
    20:00 +8°C° 0 mm 1 mps 732 mmHg 83%
    21:00 +8°C° 0 mm 1 mps 732 mmHg 85%
    22:00 +7°C° 0 mm 1 mps 732 mmHg 86%
    23:00 +7°C° 0 mm 1 mps 732 mmHg 87%

    15 December, Saturday

    Time Temperature Precipitation Wind Pressure Humidity
    00:00 +7°C° 0 mm 1 mps 732 mmHg 88%
    01:00 +6°C° 0 mm 0 mps 732 mmHg 89%
    02:00 +6°C° 0 mm 0 mps 732 mmHg 89%
    03:00 +6°C° 0 mm 0 mps 731 mmHg 89%
    04:00 +6°C° 0 mm 0 mps 731 mmHg 89%
    05:00 +5°C° 0 mm 0 mps 731 mmHg 89%
    06:00 +6°C° 0 mm 1 mps 731 mmHg 90%
    07:00 +7°C° 0 mm 1 mps 731 mmHg 87%
    08:00 +8°C° 0 mm 1 mps 732 mmHg 85%
    09:00 +8°C° 0 mm 1 mps 732 mmHg 82%
    10:00 +10°C° 0 mm 1 mps 732 mmHg 75%
    11:00 +12°C° 0 mm 1 mps 732 mmHg 68%
    12:00 +14°C° 0 mm 1 mps 732 mmHg 60%
    13:00 +14°C° 0 mm 1 mps 732 mmHg 58%
    14:00 +15°C° 0 mm 1 mps 732 mmHg 56%
    15:00 +15°C° 0 mm 1 mps 731 mmHg 54%
    16:00 +12°C° 0 mm 0 mps 731 mmHg 61%
    17:00 +11°C° 0 mm 0 mps 731 mmHg 68%
    18:00 +9°C° 0 mm 0 mps 731 mmHg 74%
    19:00 +8°C° 0 mm 0 mps 732 mmHg 76%
    20:00 +8°C° 0 mm 0 mps 732 mmHg 77%
    21:00 +8°C° 0 mm 0 mps 732 mmHg 78%
    22:00 +8°C° 0 mm 0 mps 732 mmHg 79%
    23:00 +7°C° 0 mm 0 mps 732 mmHg 79%
    Show more